Regional Weather Roundup
Issued by NWS

Home | Current Version | Previous Version | Graphics & Text | Print | Product List | Glossary On
Versions: 1 2 3 4 5 6 7 8 9 10 11 12 13 14 15 16 17 18 19 20 21 22 23 24 25 26 27 28 29 30 31 32 33 34 35 36 37 38 39 40 41 42 43 44 45 46 47 48 49 50
000
ASUS43 KLOT 251410
RWRIL

ILLINOIS REGIONAL WEATHER ROUNDUP
NATIONAL WEATHER SERVICE CHICAGO/ROMEOVILLE IL
900 AM CDT FRI JUL 25 2014

NOTE: "FAIR" INDICATES FEW OR NO CLOUDS BELOW 12,000 FEET WITH NO
SIGNIFICANT WEATHER AND/OR OBSTRUCTIONS TO VISIBILITY.

* THESE STATIONS ARE NOT UNDER NWS QUALITY CONTROL. THEY ALSO MAY NOT
  REPORT WEATHER SUCH AS PRECIPITATION OR FOG.

ILZ001-002-007-009-015-016-024-251500-
NORTHWEST ILLINOIS

CITY           SKY/WX    TMP DP  RH WIND       PRES   REMARKS
MOLINE         CLOUDY    63  58  83 S13G18    29.98F
STERLING*      CLOUDY    61  57  88 S7        30.01F
SAVANNA*       CLOUDY    64  59  85 S8        30.01R
$$

ILZ003-004-008-010-011-017-018-251500-
NORTH CENTRAL ILLINOIS

CITY           SKY/WX    TMP DP  RH WIND       PRES   REMARKS
ROCKFORD       CLOUDY    62  57  83 SE7       30.02F
FREEPORT*      CLOUDY    61  56  85 S13G20    30.00F
ROCHELLE*      CLOUDY    61  57  87 S10       30.02F
DE KALB*       CLOUDY    60  56  85 S12       30.04F
PERU*          DRIZZLE   61  57  87 S7        30.06F
$$

ILZ005-006-012>014-019>023-251500-
NORTHEAST ILLINOIS

CITY           SKY/WX    TMP DP  RH WIND       PRES   REMARKS
CHICAGO-OHARE  CLOUDY    65  52  62 SW8       30.05F
CHICAGO-MIDWAY CLOUDY    66  54  65 S8        30.06F
AURORA         CLOUDY    60  55  83 S7        30.05F
JOLIET*        LGT RAIN  62  56  81 W5        30.07F
WAUKEGAN       CLOUDY    65  52  62 S12       30.02F
DUPAGE AIRPORT LGT RAIN  62  56  80 S8        30.04F
KANKAKEE*      PTSUNNY   69  59  71 S6        30.10F
WHEELING       CLOUDY    67  54  63 S8        30.05F
MORRIS*        CLOUDY    64  60  87 S6        30.06F
ROMEOVILLE*    DRIZZLE   62  56  78 SW5       30.06F
$$

LMZ740>746-251500-
SOUTHERN LAKE MICHIGAN

STATION/POSITION SKY/WX   TEMP    WIND        PRES    VSBY  WAVE
                          AIR SEA DIR/SP/G                  HT/PER
                          (F)     (DEG/KT/KT) (MB)    (MI)  (FT/S)
SOUTHERN BUOY              62 61  190/  6/  6 1017.8F         1
WAUKEGAN HARBOR            66     230/ 12/ 15   N/A
HARRISON CRIB              65     190/ 14/ 17   N/A
CALUMET HARBOR             63     200/  7/  9 1017.0F
MICHIGAN CITY              63     180/  8/ 10   N/A
MICHIGAN CITY 6N           64 68  210/  8/ 10   N/A           1/ 2
ST. JOSEPH                 64 63  190/ 10/ 12   N/A           2/ 3
$$

ILZ025>027-034>036-040-047-049-050-058-095>099-251500-
WEST-CENTRAL ILLINOIS

CITY           SKY/WX    TMP DP  RH WIND       PRES   REMARKS
QUINCY         TSTM      62  59  90 E10       30.07R FOG
GALESBURG*     CLOUDY    60  58  94 SE9       30.04F
MACOMB*        TSTM      60  59  99 CALM      30.13R
JACKSONVILLE*  CLOUDY    63  60  89 NE3       30.10R
PITTSFIELD*    CLOUDY    62  58  88 CALM      30.08R
$$

ILZ028>032-037-038-041>044-048-051>054-059>061-251500-
CENTRAL ILLINOIS

CITY           SKY/WX    TMP DP  RH WIND       PRES   REMARKS
PONTIAC        CLOUDY    63  61  94 CALM      30.08F
DECATUR        CLOUDY    65  59  81 SE5       30.10F
PEORIA         LGT RAIN  63  58  83 CALM      30.10F
LACON*         LGT RAIN  60  57  89 S5        30.07F
LINCOLN*       CLOUDY    61  57  88 CALM      30.09S
SPRINGFIELD    CLOUDY    64  59  83 SW3       30.10F
TAYLORVILLE    CLOUDY    63  59  88 S3        30.08F
$$

ILZ033-039-045-046-055>057-062-063-251500-
EAST-CENTRAL ILLINOIS

CITY           SKY/WX    TMP DP  RH WIND       PRES   REMARKS
CHAMPAIGN      CLOUDY    63  58  83 S3        30.12R
DANVILLE*      CLOUDY    67  58  72 S7        30.10S
RANTOUL*       CLOUDY    63  57  79 S3        30.12F
MATTOON        CLOUDY    66  58  75 S3        30.12R
PARIS*         PTSUNNY   65  60  86 CALM      30.14R
$$

ILZ079-100>102-251500-
SOUTHWEST ILLINOIS

CITY           SKY/WX    TMP DP  RH WIND       PRES   REMARKS
ALTON          PTSUNNY   66  64  94 SE6       30.07F
BELLEVILLE     MOSUNNY   69  62  81 E1        30.07F
CAHOKIA*       PTSUNNY   70  61  73 S3        30.07F
SPARTA*        PTSUNNY   64  61  88 CALM      30.11R
$$

ILZ064>066-069>071-074>076-080>082-084>086-088>090-092>094-251500-
SOUTH-CENTRAL ILLINOIS

CITY           SKY/WX    TMP DP  RH WIND       PRES   REMARKS
CARBONDALE     MOSUNNY   70  61  73 S5        30.09R
CAIRO*         MOSUNNY   72  65  78 CALM      30.09R
EFFINGHAM*     PTSUNNY   69  56  63 CALM      30.11S
MARION         PTSUNNY   72  61  68 S6        30.10R
MT. VERNON     MOSUNNY   70  59  68 S5        30.11R
CENTRALIA*     PTSUNNY   75  59  57 S5        30.10R
SALEM*         PTSUNNY   71  62  71 S5        30.10S
METROPOLIS*    MOSUNNY   70  59  67 CALM      30.09R
$$

ILZ067-068-072-073-078-083-087-091-251500-
SOUTHEAST ILLINOIS

CITY           SKY/WX    TMP DP  RH WIND       PRES   REMARKS
LAWRENCEVILLE  MOSUNNY   69  59  70 SE5       30.10R
FLORA*         MOSUNNY   68  60  74 S5        30.11R
HARRISBURG*    MOSUNNY   65  65 100 CALM      30.11R
ROBINSON*      MOSUNNY   69  60  73 S5        30.12R
$$

ABBREVIATIONS USED IN REMARKS
   TC - TEMPERATURE IN CELSIUS
  WCI - WIND CHILL INDEX
   HX - HEAT INDEX
  VSB - VISIBILITY
$$




USA.gov is the U.S. government's official web portal to all federal, state and local government web resources and services.